Location: Altmatt
(47.1333°N, 8.7000°E)
Time: 00:33:54
(UTC+00:00)

Sich 1 - Pass Details

Date: 13 July 2020
Orbit: 595 x 624 km, 82.5° (Epoch: 11 August)

Event Time Altitude Azimuth Distance (km) Brightness Sun altitude
Exits shadow 23:33:33 61° 199° (SSW) 694 2.9 -21.2°
Maximum altitude 23:34:17 84° 277° (W) 619 2.9 -21.2°
Drops below altitude 10° 23:38:41 10° 8° (N) 1,983 6.8 -21.2°
Sets 23:40:56 0° 9° (N) 2,898 8.0 -21.2°
